| time (UTC) | temp C | wind direction | speed KPH | gust KPH | rain 1hr cm | rain 24hr cm | rain mn cm | humidity % | barometer mb |
| 20260510082048 | 3 | 167 | 0.0 | 0.0 | 0.00 | 0.00 | 0.00 | 72 | 1016.1 |
| 20260510081543 | 3 | 167 | 0.0 | 0.0 | 0.00 | 0.00 | 0.00 | 72 | 1016.4 |
| 20260510081039 | 3 | 167 | 0.0 | 0.0 | 0.00 | 0.00 | 0.00 | 72 | 1016.3 |
| 20260510080538 | 3 | 167 | 0.0 | 0.0 | 0.00 | 0.00 | 0.00 | 71 | 1016.4 |
| 20260510080035 | 3 | 167 | 0.0 | 0.0 | 0.00 | 0.00 | 0.00 | 69 | 1016.2 |
| 20260510075532 | 3 | 167 | 0.0 | 0.0 | 0.00 | 0.00 | 0.00 | 69 | 1016.1 |
| 20260510075029 | 4 | 167 | 0.0 | 0.0 | 0.00 | 0.00 | 0.00 | 68 | 1016.2 |
| 20260510074527 | 4 | 167 | 0.0 | 0.0 | 0.00 | 0.00 | 0.00 | 68 | 1016.1 |
| 20260510074022 | 4 | 167 | 0.0 | 0.0 | 0.00 | 0.00 | 0.00 | 67 | 1016.1 |
| 20260510073518 | 4 | 167 | 0.0 | 0.0 | 0.00 | 0.00 | 0.00 | 67 | 1016.3 |
| 20260510073015 | 4 | 167 | 0.0 | 0.0 | 0.00 | 0.00 | 0.00 | 67 | 1016.2 |
| 20260510072512 | 4 | 167 | 0.0 | 0.0 | 0.00 | 0.00 | 0.00 | 66 | 1016.2 |
| 20260510072007 | 5 | 167 | 0.0 | 0.0 | 0.00 | 0.00 | 0.00 | 65 | 1016.0 |
| 20260510071504 | 4 | 167 | 0.0 | 0.0 | 0.00 | 0.00 | 0.00 | 65 | 1016.3 |
| 20260510071002 | 4 | 167 | 0.0 | 0.0 | 0.00 | 0.00 | 0.00 | 65 | 1016.3 |
| 20260510070459 | 4 | 167 | 0.0 | 0.0 | 0.00 | 0.00 | 0.00 | 66 | 1016.2 |
| 20260510065954 | 4 | 167 | 0.0 | 0.0 | 0.00 | 0.00 | 0.00 | 65 | 1016.2 |
| 20260510065452 | 4 | 167 | 0.0 | 0.0 | 0.00 | 0.00 | 0.00 | 64 | 1016.2 |
| 20260510064948 | 5 | 167 | 0.0 | 0.0 | 0.00 | 0.00 | 0.00 | 63 | 1016.2 |
| 20260510064445 | 5 | 167 | 0.0 | 0.0 | 0.00 | 0.00 | 0.00 | 62 | 1016.2 |
| 20260510063942 | 5 | 167 | 0.0 | 0.0 | 0.00 | 0.00 | 0.00 | 61 | 1016.3 |
| 20260510063438 | 6 | 167 | 0.0 | 0.0 | 0.00 | 0.00 | 0.00 | 60 | 1016.1 |
| 20260510062936 | 6 | 167 | 0.0 | 0.0 | 0.00 | 0.00 | 0.00 | 60 | 1016.1 |
| 20260510062430 | 6 | 167 | 0.0 | 0.0 | 0.00 | 0.00 | 0.00 | 59 | 1016.3 |
| 20260510061926 | 6 | 170 | 0.0 | 0.0 | 0.00 | 0.00 | 0.00 | 57 | 1016.1 |
| 20260510061423 | 6 | 170 | 0.0 | 0.0 | 0.00 | 0.00 | 0.00 | 57 | 1016.1 |
| 20260510060919 | 6 | 170 | 0.0 | 0.0 | 0.00 | 0.00 | 0.00 | 58 | 1016.1 |
| 20260510060416 | 6 | 170 | 0.0 | 0.0 | 0.00 | 0.00 | 0.00 | 58 | 1016.1 |
| 20260510055913 | 6 | 170 | 0.0 | 0.0 | 0.00 | 0.00 | 0.00 | 58 | 1016.1 |
| 20260510055408 | 6 | 170 | 0.0 | 0.0 | 0.00 | 0.00 | 0.00 | 58 | 1015.8 |
| 20260510054906 | 5 | 170 | 0.0 | 0.0 | 0.00 | 0.00 | 0.00 | 59 | 1016.0 |
| 20260510054401 | 6 | 170 | 0.0 | 0.0 | 0.00 | 0.00 | 0.00 | 57 | 1016.1 |
| 20260510053857 | 6 | 170 | 0.0 | 0.0 | 0.00 | 0.00 | 0.00 | 56 | 1016.1 |
| 20260510053352 | 6 | 170 | 0.0 | 0.0 | 0.00 | 0.00 | 0.00 | 56 | 1015.9 |
| 20260510052849 | 6 | 170 | 0.0 | 0.0 | 0.00 | 0.00 | 0.00 | 55 | 1015.9 |
| 20260510052345 | 6 | 170 | 0.0 | 0.0 | 0.00 | 0.00 | 0.00 | 54 | 1015.7 |
| 20260510051841 | 6 | 170 | 0.0 | 0.0 | 0.00 | 0.00 | 0.00 | 54 | 1016.0 |
| 20260510051338 | 7 | 170 | 0.0 | 0.0 | 0.00 | 0.00 | 0.00 | 53 | 1015.8 |
| 20260510050835 | 7 | 170 | 0.0 | 0.0 | 0.00 | 0.00 | 0.00 | 51 | 1015.7 |
| 20260510050331 | 7 | 170 | 0.0 | 0.0 | 0.00 | 0.00 | 0.00 | 49 | 1015.6 |
| 20260510045829 | 8 | 170 | 0.0 | 0.0 | 0.00 | 0.00 | 0.00 | 49 | 1015.7 |
| 20260510045325 | 8 | 170 | 0.0 | 0.0 | 0.00 | 0.00 | 0.00 | 48 | 1015.8 |
| 20260510044822 | 8 | 170 | 0.0 | 0.0 | 0.00 | 0.00 | 0.00 | 48 | 1015.6 |
| 20260510044319 | 8 | 170 | 0.0 | 0.0 | 0.00 | 0.00 | 0.00 | 47 | 1015.8 |
| 20260510043816 | 8 | 170 | 0.0 | 0.0 | 0.00 | 0.00 | 0.00 | 46 | 1015.8 |
| 20260510043312 | 8 | 169 | 0.0 | 0.0 | 0.00 | 0.00 | 0.00 | 45 | 1015.8 |
| 20260510042810 | 9 | 169 | 0.0 | 0.0 | 0.00 | 0.00 | 0.00 | 45 | 1015.8 |
| 20260510042307 | 9 | 165 | 0.0 | 0.0 | 0.00 | 0.00 | 0.00 | 44 | 1015.5 |
| 20260510041801 | 10 | 168 | 0.0 | 0.0 | 0.00 | 0.00 | 0.00 | 43 | 1015.7 |
| 20260510041259 | 10 | 170 | 0.0 | 0.0 | 0.00 | 0.00 | 0.00 | 42 | 1015.7 |
| 20260510040757 | 10 | 173 | 0.0 | 3.2 | 0.00 | 0.00 | 0.00 | 42 | 1015.5 |
| 20260510040253 | 10 | 183 | 1.6 | 3.2 | 0.00 | 0.00 | 0.00 | 42 | 1015.5 |
| 20260510035749 | 10 | 156 | 0.0 | 3.2 | 0.00 | 0.00 | 0.00 | 42 | 1015.4 |
| 20260510035244 | 10 | 168 | 0.0 | 0.0 | 0.00 | 0.00 | 0.00 | 42 | 1015.3 |
| 20260510034740 | 10 | 194 | 0.0 | 0.0 | 0.00 | 0.00 | 0.00 | 41 | 1015.2 |
| 20260510034238 | 10 | 208 | 0.0 | 3.2 | 0.00 | 0.00 | 0.00 | 41 | 1015.1 |
| 20260510033734 | 10 | 307 | 3.2 | 4.8 | 0.00 | 0.00 | 0.00 | 40 | 1015.2 |
| 20260510033232 | 10 | 146 | 0.0 | 0.0 | 0.00 | 0.00 | 0.00 | 40 | 1015.0 |
| 20260510032728 | 10 | 274 | 1.6 | 3.2 | 0.00 | 0.00 | 0.00 | 40 | 1014.8 |
| 20260510032224 | 10 | 183 | 1.6 | 3.2 | 0.00 | 0.00 | 0.00 | 40 | 1015.0 |
| 20260510031719 | 11 | 168 | 0.0 | 0.0 | 0.00 | 0.00 | 0.00 | 40 | 1015.0 |
| 20260510031216 | 11 | 167 | 0.0 | 0.0 | 0.00 | 0.00 | 0.00 | 40 | 1014.8 |
| 20260510030715 | 11 | 168 | 0.0 | 0.0 | 0.00 | 0.00 | 0.00 | 39 | 1014.6 |
| 20260510030213 | 11 | 222 | 0.0 | 0.0 | 0.00 | 0.00 | 0.00 | 39 | 1014.5 |
| 20260510025710 | 11 | 174 | 0.0 | 0.0 | 0.00 | 0.00 | 0.00 | 39 | 1014.4 |
| 20260510025207 | 11 | 159 | 0.0 | 0.0 | 0.00 | 0.00 | 0.00 | 39 | 1014.4 |
| 20260510024704 | 11 | 92 | 1.6 | 3.2 | 0.00 | 0.00 | 0.00 | 39 | 1014.4 |
| 20260510024200 | 11 | 247 | 3.2 | 4.8 | 0.00 | 0.00 | 0.00 | 38 | 1014.3 |
| 20260510023656 | 11 | 248 | 3.2 | 3.2 | 0.00 | 0.00 | 0.00 | 37 | 1014.2 |
| 20260510023154 | 11 | 206 | 0.0 | 0.0 | 0.00 | 0.00 | 0.00 | 37 | 1014.1 |
| 20260510022649 | 12 | 179 | 0.0 | 3.2 | 0.00 | 0.00 | 0.00 | 37 | 1014.0 |
| 20260510022144 | 12 | 168 | 1.6 | 3.2 | 0.00 | 0.00 | 0.00 | 37 | 1013.9 |
| 20260510021640 | 12 | 355 | 6.4 | 8.0 | 0.00 | 0.00 | 0.00 | 36 | 1013.7 |
| 20260510021138 | 12 | 205 | 3.2 | 3.2 | 0.00 | 0.00 | 0.00 | 36 | 1013.8 |
| 20260510020637 | 12 | 168 | 3.2 | 4.8 | 0.00 | 0.00 | 0.00 | 36 | 1013.4 |
| 20260510020133 | 12 | 179 | 0.0 | 3.2 | 0.00 | 0.00 | 0.00 | 35 | 1013.3 |
| 20260510015629 | 12 | 141 | 1.6 | 3.2 | 0.00 | 0.00 | 0.00 | 35 | 1013.3 |
| 20260510015126 | 12 | 11 | 3.2 | 4.8 | 0.00 | 0.00 | 0.00 | 35 | 1013.1 |
| 20260510014621 | 12 | 46 | 6.4 | 8.0 | 0.00 | 0.00 | 0.00 | 34 | 1013.1 |
| 20260510014119 | 13 | 265 | 4.8 | 4.8 | 0.00 | 0.00 | 0.00 | 34 | 1012.9 |
| 20260510013619 | 13 | 173 | 0.0 | 3.2 | 0.00 | 0.00 | 0.00 | 34 | 1013.1 |
| 20260510013115 | 13 | 286 | 6.4 | 11.3 | 0.00 | 0.00 | 0.00 | 33 | 1012.9 |
| 20260510012613 | 13 | 313 | 11.3 | 14.5 | 0.00 | 0.00 | 0.00 | 33 | 1012.6 |
| 20260510012111 | 13 | 132 | 4.8 | 8.0 | 0.00 | 0.00 | 0.00 | 34 | 1012.5 |
| 20260510011610 | 13 | 170 | 3.2 | 3.2 | 0.00 | 0.00 | 0.00 | 33 | 1012.5 |
| 20260510011106 | 13 | 321 | 1.6 | 3.2 | 0.00 | 0.00 | 0.00 | 34 | 1012.2 |
| 20260510010603 | 13 | 1 | 9.7 | 14.5 | 0.00 | 0.00 | 0.00 | 33 | 1012.2 |
| 20260510010100 | 13 | 306 | 3.2 | 4.8 | 0.00 | 0.00 | 0.00 | 32 | 1012.2 |
| 20260510005555 | 13 | 259 | 3.2 | 3.2 | 0.00 | 0.00 | 0.00 | 33 | 1012.3 |
| 20260510005053 | 14 | 207 | 1.6 | 3.2 | 0.00 | 0.00 | 0.00 | 32 | 1012.0 |
| 20260510004551 | 14 | 337 | 3.2 | 4.8 | 0.00 | 0.00 | 0.00 | 33 | 1012.1 |
| 20260510004049 | 15 | 264 | 4.8 | 8.0 | 0.00 | 0.00 | 0.00 | 32 | 1012.0 |
| 20260510003545 | 15 | 198 | 3.2 | 4.8 | 0.00 | 0.00 | 0.00 | 32 | 1011.9 |
| 20260510003041 | 15 | 197 | 3.2 | 4.8 | 0.00 | 0.00 | 0.00 | 32 | 1011.8 |
| 20260510002536 | 15 | 296 | 8.0 | 11.3 | 0.00 | 0.00 | 0.00 | 31 | 1011.8 |
| 20260510002034 | 15 | 64 | 1.6 | 3.2 | 0.00 | 0.00 | 0.00 | 32 | 1011.8 |
| 20260510001531 | 15 | 281 | 1.6 | 3.2 | 0.00 | 0.00 | 0.00 | 32 | 1011.9 |
| 20260510001029 | 15 | 29 | 6.4 | 8.0 | 0.00 | 0.00 | 0.00 | 32 | 1011.8 |
| 20260510000524 | 15 | 168 | 0.0 | 3.2 | 0.00 | 0.00 | 0.00 | 32 | 1011.4 |
| 20260510000021 | 15 | 141 | 3.2 | 4.8 | 0.00 | 0.00 | 0.00 | 32 | 1011.5 |
| 20260509235518 | 15 | 295 | 8.0 | 11.3 | 0.00 | 0.00 | 0.00 | 32 | 1011.5 |
| 20260509235015 | 15 | 102 | 1.6 | 3.2 | 0.00 | 0.00 | 0.00 | 32 | 1011.7 |
| 20260509234511 | 15 | 193 | 3.2 | 8.0 | 0.00 | 0.00 | 0.00 | 31 | 1011.5 |
| 20260509234009 | 15 | 176 | 3.2 | 4.8 | 0.00 | 0.00 | 0.00 | 31 | 1011.5 |
| 20260509233506 | 15 | 313 | 3.2 | 8.0 | 0.00 | 0.00 | 0.00 | 30 | 1011.1 |
| 20260509233003 | 15 | 19 | 8.0 | 11.3 | 0.00 | 0.00 | 0.00 | 30 | 1011.3 |
| 20260509232500 | 15 | 359 | 9.7 | 19.3 | 0.00 | 0.00 | 0.00 | 30 | 1011.3 |
| 20260509231956 | 15 | 101 | 4.8 | 4.8 | 0.00 | 0.00 | 0.00 | 29 | 1011.2 |
| 20260509231453 | 16 | 248 | 8.0 | 14.5 | 0.00 | 0.00 | 0.00 | 29 | 1011.2 |
| 20260509230951 | 16 | 195 | 8.0 | 16.1 | 0.00 | 0.00 | 0.00 | 30 | 1011.1 |
| 20260509230447 | 16 | 300 | 3.2 | 4.8 | 0.00 | 0.00 | 0.00 | 30 | 1011.1 |
| 20260509225943 | 16 | 290 | 8.0 | 11.3 | 0.00 | 0.00 | 0.00 | 30 | 1011.1 |
| 20260509225440 | 16 | 105 | 9.7 | 16.1 | 0.00 | 0.00 | 0.00 | 29 | 1011.0 |
| 20260509224936 | 16 | 2 | 8.0 | 14.5 | 0.00 | 0.00 | 0.00 | 29 | 1011.0 |
| 20260509224431 | 16 | 348 | 3.2 | 4.8 | 0.00 | 0.00 | 0.00 | 30 | 1010.8 |
| 20260509223929 | 16 | 33 | 9.7 | 11.3 | 0.00 | 0.00 | 0.00 | 28 | 1010.7 |
| 20260509223425 | 16 | 339 | 3.2 | 4.8 | 0.00 | 0.00 | 0.00 | 30 | 1010.6 |
| 20260509222923 | 16 | 5 | 8.0 | 11.3 | 0.00 | 0.00 | 0.00 | 30 | 1010.7 |
| 20260509222418 | 16 | 292 | 6.4 | 11.3 | 0.00 | 0.00 | 0.00 | 30 | 1010.7 |
| 20260509221914 | 16 | 12 | 9.7 | 11.3 | 0.00 | 0.00 | 0.00 | 29 | 1010.7 |
| 20260509221411 | 16 | 235 | 6.4 | 11.3 | 0.00 | 0.00 | 0.00 | 29 | 1010.5 |
| 20260509220907 | 17 | 280 | 8.0 | 11.3 | 0.00 | 0.00 | 0.00 | 29 | 1010.7 |
| 20260509220402 | 17 | 197 | 1.6 | 3.2 | 0.00 | 0.00 | 0.00 | 30 | 1010.6 |
| 20260509215858 | 17 | 353 | 4.8 | 4.8 | 0.00 | 0.00 | 0.00 | 28 | 1010.5 |
| 20260509215355 | 17 | 300 | 8.0 | 11.3 | 0.00 | 0.00 | 0.00 | 31 | 1010.3 |
| 20260509214852 | 16 | 218 | 3.2 | 4.8 | 0.00 | 0.00 | 0.00 | 31 | 1010.4 |
| 20260509214349 | 17 | 183 | 3.2 | 3.2 | 0.00 | 0.00 | 0.00 | 30 | 1010.4 |
| 20260509213846 | 17 | 292 | 8.0 | 11.3 | 0.00 | 0.00 | 0.00 | 29 | 1010.4 |
| 20260509213341 | 17 | 0 | 6.4 | 11.3 | 0.00 | 0.00 | 0.00 | 31 | 1010.3 |
| 20260509212839 | 17 | 340 | 11.3 | 16.1 | 0.00 | 0.00 | 0.00 | 29 | 1010.2 |
| 20260509212337 | 16 | 108 | 9.7 | 11.3 | 0.00 | 0.00 | 0.00 | 29 | 1010.2 |
| 20260509211832 | 17 | 316 | 9.7 | 14.5 | 0.00 | 0.00 | 0.00 | 29 | 1010.3 |
| 20260509211328 | 16 | 202 | 1.6 | 3.2 | 0.00 | 0.00 | 0.00 | 32 | 1010.3 |
| 20260509210825 | 16 | 46 | 9.7 | 11.3 | 0.00 | 0.00 | 0.00 | 29 | 1010.3 |
| 20260509210323 | 16 | 15 | 14.5 | 22.5 | 0.00 | 0.00 | 0.00 | 29 | 1010.1 |
| 20260509205823 | 16 | 249 | 11.3 | 24.1 | 0.00 | 0.00 | 0.00 | 28 | 1010.3 |
| 20260509205323 | 16 | 330 | 4.8 | 8.0 | 0.00 | 0.00 | 0.00 | 30 | 1010.0 |
| 20260509204820 | 17 | 320 | 14.5 | 19.3 | 0.00 | 0.00 | 0.00 | 28 | 1010.3 |
| 20260509204316 | 16 | 303 | 4.8 | 11.3 | 0.00 | 0.00 | 0.00 | 32 | 1010.0 |
| 20260509203812 | 17 | 273 | 9.7 | 14.5 | 0.00 | 0.00 | 0.00 | 30 | 1009.9 |
| 20260509203310 | 16 | 57 | 4.8 | 4.8 | 0.00 | 0.00 | 0.00 | 30 | 1010.1 |
| 20260509202806 | 16 | 2 | 9.7 | 11.3 | 0.00 | 0.00 | 0.00 | 30 | 1010.0 |
| 20260509202306 | 16 | 1 | 8.0 | 8.0 | 0.00 | 0.00 | 0.00 | 30 | 1010.2 |
| 20260509201800 | 17 | 123 | 3.2 | 8.0 | 0.00 | 0.00 | 0.00 | 30 | 1010.0 |
| 20260509201258 | 16 | 218 | 8.0 | 11.3 | 0.00 | 0.00 | 0.00 | 31 | 1010.1 |
| 20260509200754 | 17 | 357 | 3.2 | 4.8 | 0.00 | 0.00 | 0.00 | 30 | 1009.8 |
| 20260509200249 | 17 | 202 | 6.4 | 11.3 | 0.00 | 0.00 | 0.00 | 31 | 1009.6 |
| 20260509195747 | 16 | 357 | 12.9 | 16.1 | 0.00 | 0.00 | 0.00 | 32 | 1010.0 |
| 20260509195242 | 16 | 21 | 8.0 | 11.3 | 0.00 | 0.00 | 0.00 | 31 | 1009.8 |
| 20260509194741 | 16 | 322 | 3.2 | 8.0 | 0.00 | 0.00 | 0.00 | 32 | 1009.8 |
| 20260509194238 | 16 | 0 | 9.7 | 16.1 | 0.00 | 0.00 | 0.00 | 30 | 1009.8 |
| 20260509193735 | 16 | 46 | 8.0 | 11.3 | 0.00 | 0.00 | 0.00 | 33 | 1009.6 |
| 20260509193235 | 16 | 238 | 3.2 | 3.2 | 0.00 | 0.00 | 0.00 | 34 | 1009.9 |
| 20260509192731 | 16 | 33 | 6.4 | 8.0 | 0.00 | 0.00 | 0.00 | 32 | 1009.7 |
| 20260509192226 | 16 | 56 | 9.7 | 16.1 | 0.00 | 0.00 | 0.00 | 34 | 1009.8 |
| 20260509191722 | 16 | 285 | 11.3 | 14.5 | 0.00 | 0.00 | 0.00 | 33 | 1009.6 |
| 20260509191219 | 15 | 69 | 6.4 | 8.0 | 0.00 | 0.00 | 0.00 | 34 | 1009.4 |
| 20260509190715 | 16 | 9 | 11.3 | 14.5 | 0.00 | 0.00 | 0.00 | 35 | 1009.6 |
| 20260509190212 | 16 | 359 | 8.0 | 14.5 | 0.00 | 0.00 | 0.00 | 34 | 1009.5 |
| 20260509185710 | 16 | 319 | 3.2 | 3.2 | 0.00 | 0.00 | 0.00 | 34 | 1009.5 |
| 20260509185205 | 16 | 281 | 3.2 | 4.8 | 0.00 | 0.00 | 0.00 | 33 | 1009.3 |
| 20260509184703 | 16 | 290 | 8.0 | 8.0 | 0.00 | 0.00 | 0.00 | 33 | 1009.3 |
| 20260509184200 | 16 | 285 | 12.9 | 19.3 | 0.00 | 0.00 | 0.00 | 34 | 1009.3 |
| 20260509183656 | 15 | 12 | 9.7 | 19.3 | 0.00 | 0.00 | 0.00 | 36 | 1009.0 |
| 20260509183151 | 15 | 287 | 4.8 | 8.0 | 0.00 | 0.00 | 0.00 | 35 | 1009.4 |
| 20260509182647 | 16 | 192 | 6.4 | 8.0 | 0.00 | 0.00 | 0.00 | 35 | 1008.9 |
| 20260509182145 | 16 | 72 | 6.4 | 11.3 | 0.00 | 0.00 | 0.00 | 36 | 1008.8 |
| 20260509181643 | 15 | 264 | 14.5 | 24.1 | 0.00 | 0.00 | 0.00 | 34 | 1009.0 |
| 20260509181140 | 15 | 85 | 6.4 | 8.0 | 0.00 | 0.00 | 0.00 | 36 | 1009.3 |
| 20260509180637 | 15 | 37 | 4.8 | 8.0 | 0.00 | 0.00 | 0.00 | 34 | 1008.9 |
| 20260509180133 | 15 | 149 | 8.0 | 14.5 | 0.00 | 0.00 | 0.00 | 36 | 1009.0 |
| 20260509175629 | 15 | 274 | 4.8 | 4.8 | 0.00 | 0.00 | 0.00 | 35 | 1009.2 |
| 20260509175126 | 15 | 344 | 8.0 | 8.0 | 0.00 | 0.00 | 0.00 | 37 | 1009.0 |
| 20260509174622 | 15 | 330 | 11.3 | 14.5 | 0.00 | 0.00 | 0.00 | 35 | 1008.9 |
| 20260509174117 | 15 | 334 | 4.8 | 14.5 | 0.00 | 0.00 | 0.00 | 37 | 1008.9 |
| 20260509173613 | 15 | 331 | 14.5 | 19.3 | 0.00 | 0.00 | 0.00 | 35 | 1008.8 |
| 20260509173109 | 15 | 190 | 6.4 | 8.0 | 0.00 | 0.00 | 0.00 | 39 | 1008.8 |
| 20260509172606 | 15 | 101 | 4.8 | 8.0 | 0.00 | 0.00 | 0.00 | 38 | 1008.8 |
| 20260509172102 | 15 | 329 | 11.3 | 14.5 | 0.00 | 0.00 | 0.00 | 40 | 1008.8 |
| 20260509171558 | 14 | 212 | 11.3 | 16.1 | 0.00 | 0.00 | 0.00 | 39 | 1008.8 |
| 20260509171054 | 15 | 352 | 8.0 | 11.3 | 0.00 | 0.00 | 0.00 | 39 | 1008.6 |
| 20260509170550 | 15 | 348 | 8.0 | 14.5 | 0.00 | 0.00 | 0.00 | 39 | 1008.4 |
| 20260509170046 | 15 | 21 | 16.1 | 24.1 | 0.00 | 0.00 | 0.00 | 38 | 1008.5 |
| 20260509165545 | 15 | 328 | 6.4 | 11.3 | 0.00 | 0.00 | 0.00 | 40 | 1008.5 |
| 20260509165040 | 15 | 56 | 8.0 | 11.3 | 0.00 | 0.00 | 0.00 | 38 | 1008.4 |
| 20260509164537 | 15 | 215 | 14.5 | 22.5 | 0.00 | 0.00 | 0.00 | 37 | 1008.4 |
| 20260509164033 | 15 | 281 | 8.0 | 14.5 | 0.00 | 0.00 | 0.00 | 40 | 1008.2 |
| 20260509163531 | 15 | 332 | 9.7 | 14.5 | 0.00 | 0.00 | 0.00 | 38 | 1008.1 |
| 20260509163026 | 15 | 323 | 8.0 | 11.3 | 0.00 | 0.00 | 0.00 | 38 | 1008.1 |
| 20260509162524 | 15 | 248 | 9.7 | 19.3 | 0.00 | 0.00 | 0.00 | 39 | 1008.2 |
| 20260509162019 | 15 | 316 | 12.9 | 16.1 | 0.00 | 0.00 | 0.00 | 37 | 1008.2 |
| 20260509161516 | 15 | 324 | 14.5 | 24.1 | 0.00 | 0.00 | 0.00 | 38 | 1008.1 |
| 20260509161011 | 15 | 0 | 4.8 | 4.8 | 0.00 | 0.00 | 0.00 | 38 | 1008.0 |
| 20260509160507 | 15 | 139 | 3.2 | 3.2 | 0.00 | 0.00 | 0.00 | 41 | 1007.8 |
| 20260509160003 | 15 | 2 | 8.0 | 11.3 | 0.00 | 0.00 | 0.00 | 39 | 1007.9 |
| 20260509155459 | 15 | 279 | 8.0 | 8.0 | 0.00 | 0.00 | 0.00 | 40 | 1007.8 |
| 20260509154955 | 14 | 192 | 8.0 | 14.5 | 0.00 | 0.00 | 0.00 | 40 | 1008.0 |
| 20260509154451 | 14 | 352 | 11.3 | 14.5 | 0.00 | 0.00 | 0.00 | 40 | 1007.8 |
| 20260509153949 | 14 | 8 | 12.9 | 16.1 | 0.00 | 0.00 | 0.00 | 42 | 1007.6 |
| 20260509153446 | 15 | 1 | 14.5 | 24.1 | 0.00 | 0.00 | 0.00 | 43 | 1007.6 |
| 20260509152943 | 14 | 214 | 8.0 | 11.3 | 0.00 | 0.00 | 0.00 | 43 | 1007.5 |
| 20260509152438 | 14 | 76 | 9.7 | 14.5 | 0.00 | 0.00 | 0.00 | 43 | 1007.6 |
| 20260509151936 | 13 | 17 | 6.4 | 8.0 | 0.00 | 0.00 | 0.00 | 48 | 1007.3 |
| 20260509151432 | 13 | 352 | 8.0 | 11.3 | 0.00 | 0.00 | 0.00 | 46 | 1007.4 |
| 20260509150930 | 13 | 199 | 4.8 | 8.0 | 0.00 | 0.00 | 0.00 | 45 | 1007.3 |
| 20260509150427 | 13 | 71 | 12.9 | 19.3 | 0.00 | 0.00 | 0.00 | 45 | 1007.3 |
| 20260509145925 | 13 | 339 | 6.4 | 8.0 | 0.00 | 0.00 | 0.00 | 46 | 1007.2 |
| 20260509145425 | 13 | 275 | 9.7 | 22.5 | 0.00 | 0.00 | 0.00 | 48 | 1007.2 |
| 20260509144921 | 12 | 2 | 3.2 | 4.8 | 0.00 | 0.00 | 0.00 | 49 | 1007.1 |
| 20260509144418 | 13 | 59 | 9.7 | 16.1 | 0.00 | 0.00 | 0.00 | 48 | 1007.2 |
| 20260509143915 | 13 | 55 | 3.2 | 4.8 | 0.00 | 0.00 | 0.00 | 51 | 1007.0 |
| 20260509143413 | 12 | 319 | 3.2 | 4.8 | 0.00 | 0.00 | 0.00 | 53 | 1007.0 |
| 20260509142909 | 12 | 346 | 8.0 | 11.3 | 0.00 | 0.00 | 0.00 | 56 | 1006.9 |
| 20260509142406 | 11 | 23 | 11.3 | 16.1 | 0.00 | 0.00 | 0.00 | 58 | 1007.0 |
| 20260509141901 | 11 | 0 | 3.2 | 4.8 | 0.00 | 0.00 | 0.00 | 58 | 1006.8 |
| 20260509141358 | 12 | 46 | 3.2 | 3.2 | 0.00 | 0.00 | 0.00 | 58 | 1006.6 |
| 20260509140855 | 11 | 128 | 1.6 | 3.2 | 0.00 | 0.00 | 0.00 | 60 | 1006.7 |
| 20260509140351 | 12 | 93 | 6.4 | 14.5 | 0.00 | 0.00 | 0.00 | 57 | 1006.6 |
| 20260509135850 | 12 | 50 | 12.9 | 19.3 | 0.00 | 0.00 | 0.00 | 61 | 1006.5 |
| 20260509135347 | 12 | 180 | 4.8 | 4.8 | 0.00 | 0.00 | 0.00 | 64 | 1006.3 |
| 20260509134844 | 12 | 236 | 3.2 | 4.8 | 0.00 | 0.00 | 0.00 | 64 | 1006.2 |
| 20260509134341 | 11 | 176 | 0.0 | 3.2 | 0.00 | 0.00 | 0.00 | 68 | 1006.2 |
| 20260509133838 | 11 | 105 | 3.2 | 3.2 | 0.00 | 0.00 | 0.00 | 70 | 1006.2 |
| 20260509133335 | 11 | 325 | 12.9 | 19.3 | 0.00 | 0.00 | 0.00 | 71 | 1006.2 |
| 20260509132834 | 11 | 104 | 9.7 | 14.5 | 0.00 | 0.00 | 0.00 | 70 | 1006.1 |
| 20260509132332 | 11 | 31 | 3.2 | 4.8 | 0.00 | 0.00 | 0.00 | 70 | 1006.0 |
| 20260509131828 | 11 | 170 | 16.1 | 24.1 | 0.00 | 0.00 | 0.00 | 68 | 1005.9 |
| 20260509131325 | 11 | 80 | 9.7 | 22.5 | 0.00 | 0.00 | 0.00 | 67 | 1005.8 |
| 20260509130821 | 11 | 243 | 4.8 | 4.8 | 0.00 | 0.00 | 0.00 | 69 | 1005.6 |
| 20260509130317 | 11 | 147 | 3.2 | 3.2 | 0.00 | 0.00 | 0.00 | 68 | 1005.7 |
| 20260509125814 | 11 | 282 | 6.4 | 8.0 | 0.00 | 0.00 | 0.00 | 69 | 1005.5 |
| 20260509125310 | 11 | 342 | 11.3 | 16.1 | 0.00 | 0.00 | 0.00 | 69 | 1005.6 |
| 20260509124807 | 10 | 70 | 3.2 | 3.2 | 0.00 | 0.00 | 0.00 | 70 | 1005.4 |
| 20260509124303 | 10 | 338 | 6.4 | 8.0 | 0.00 | 0.00 | 0.00 | 72 | 1005.4 |
| 20260509123802 | 10 | 312 | 8.0 | 14.5 | 0.00 | 0.00 | 0.00 | 73 | 1005.2 |
| 20260509123259 | 10 | 24 | 8.0 | 8.0 | 0.00 | 0.00 | 0.00 | 73 | 1005.0 |
| 20260509122754 | 11 | 303 | 3.2 | 4.8 | 0.00 | 0.00 | 0.00 | 73 | 1004.9 |
| 20260509122252 | 11 | 74 | 4.8 | 4.8 | 0.00 | 0.00 | 0.00 | 73 | 1004.8 |
| 20260509121748 | 11 | 3 | 9.7 | 14.5 | 0.00 | 0.00 | 0.00 | 72 | 1004.6 |
| 20260509121245 | 11 | 112 | 3.2 | 4.8 | 0.00 | 0.00 | 0.00 | 73 | 1004.7 |
| 20260509120744 | 11 | 107 | 9.7 | 11.3 | 0.00 | 0.00 | 0.00 | 73 | 1004.4 |
| 20260509120241 | 11 | 279 | 3.2 | 8.0 | 0.00 | 0.00 | 0.00 | 74 | 1004.5 |
| 20260509115739 | 11 | 339 | 8.0 | 11.3 | 0.00 | 0.00 | 0.00 | 74 | 1004.5 |
| 20260509115235 | 11 | 3 | 8.0 | 14.5 | 0.00 | 0.00 | 0.00 | 74 | 1004.3 |
| 20260509114734 | 11 | 28 | 6.4 | 8.0 | 0.00 | 0.00 | 0.00 | 73 | 1004.2 |
| 20260509114232 | 11 | 284 | 3.2 | 4.8 | 0.00 | 0.00 | 0.00 | 72 | 1004.2 |
| 20260509113731 | 11 | 171 | 8.0 | 11.3 | 0.00 | 0.00 | 0.00 | 73 | 1003.9 |
| 20260509113228 | 11 | 46 | 3.2 | 4.8 | 0.00 | 0.00 | 0.00 | 73 | 1004.0 |
| 20260509112724 | 11 | 154 | 0.0 | 0.0 | 0.00 | 0.00 | 0.00 | 73 | 1004.0 |
| 20260509112222 | 11 | 160 | 0.0 | 0.0 | 0.00 | 0.00 | 0.00 | 72 | 1003.6 |
| 20260509111718 | 11 | 160 | 0.0 | 0.0 | 0.00 | 0.00 | 0.00 | 72 | 1003.6 |
| 20260509111215 | 11 | 166 | 0.0 | 0.0 | 0.00 | 0.00 | 0.00 | 72 | 1003.7 |
| 20260509110713 | 11 | 172 | 0.0 | 0.0 | 0.00 | 0.00 | 0.00 | 72 | 1003.2 |
| 20260509110209 | 11 | 160 | 0.0 | 0.0 | 0.00 | 0.00 | 0.00 | 71 | 1003.2 |
| 20260509105708 | 11 | 172 | 1.6 | 3.2 | 0.00 | 0.00 | 0.00 | 72 | 1003.0 |
| 20260509105204 | 11 | 172 | 0.0 | 0.0 | 0.00 | 0.00 | 0.00 | 72 | 1003.1 |
| 20260509104702 | 11 | 136 | 0.0 | 0.0 | 0.00 | 0.00 | 0.00 | 71 | 1003.2 |
| 20260509104158 | 11 | 157 | 0.0 | 0.0 | 0.00 | 0.00 | 0.00 | 70 | 1002.9 |
| 20260509103656 | 11 | 144 | 0.0 | 0.0 | 0.00 | 0.00 | 0.00 | 69 | 1003.4 |
| 20260509103154 | 11 | 193 | 0.0 | 3.2 | 0.00 | 0.00 | 0.00 | 67 | 1003.3 |
| 20260509102652 | 11 | 201 | 1.6 | 3.2 | 0.00 | 0.00 | 0.00 | 65 | 1003.1 |
| 20260509102148 | 11 | 163 | 0.0 | 0.0 | 0.00 | 0.00 | 0.00 | 65 | 1003.0 |
| 20260509101644 | 11 | 181 | 0.0 | 3.2 | 0.00 | 0.00 | 0.00 | 65 | 1003.1 |
| 20260509101141 | 11 | 170 | 0.0 | 0.0 | 0.00 | 0.00 | 0.00 | 62 | 1002.8 |
| 20260509100639 | 11 | 167 | 0.0 | 0.0 | 0.00 | 0.00 | 0.00 | 60 | 1002.5 |
| 20260509100136 | 11 | 175 | 0.0 | 0.0 | 0.00 | 0.00 | 0.00 | 59 | 1002.9 |
| 20260509095632 | 11 | 172 | 0.0 | 3.2 | 0.00 | 0.00 | 0.00 | 59 | 1003.1 |
| 20260509095130 | 11 | 171 | 0.0 | 0.0 | 0.00 | 0.00 | 0.00 | 58 | 1003.2 |
| 20260509094626 | 11 | 177 | 0.0 | 0.0 | 0.00 | 0.00 | 0.00 | 57 | 1003.4 |
| 20260509094123 | 11 | 184 | 3.2 | 3.2 | 0.00 | 0.00 | 0.00 | 57 | 1003.4 |
| 20260509093622 | 11 | 202 | 0.0 | 3.2 | 0.00 | 0.00 | 0.00 | 57 | 1003.0 |
| 20260509093118 | 12 | 172 | 0.0 | 3.2 | 0.00 | 0.00 | 0.00 | 56 | 1003.4 |
| 20260509092616 | 12 | 152 | 0.0 | 0.0 | 0.00 | 0.00 | 0.00 | 56 | 1003.3 |
| 20260509092115 | 12 | 153 | 3.2 | 3.2 | 0.00 | 0.00 | 0.00 | 55 | 1003.5 |
| 20260509091612 | 12 | 217 | 3.2 | 4.8 | 0.00 | 0.00 | 0.00 | 54 | 1003.3 |
| 20260509091108 | 12 | 154 | 3.2 | 4.8 | 0.00 | 0.00 | 0.00 | 54 | 1003.1 |
| 20260509090606 | 12 | 17 | 9.7 | 14.5 | 0.00 | 0.00 | 0.00 | 53 | 1003.3 |
| 20260509085600 | 12 | 147 | 1.6 | 3.2 | 0.00 | 0.00 | 0.00 | 52 | 1003.2 |
| 20260509085055 | 12 | 181 | 0.0 | 0.0 | 0.00 | 0.00 | 0.00 | 52 | 1003.0 |
| 20260509084553 | 12 | 155 | 0.0 | 3.2 | 0.00 | 0.00 | 0.00 | 52 | 1003.0 |
| 20260509084050 | 12 | 169 | 3.2 | 3.2 | 0.00 | 0.00 | 0.00 | 51 | 1002.9 |
| 20260509083547 | 12 | 158 | 0.0 | 0.0 | 0.00 | 0.00 | 0.00 | 50 | 1002.8 |
| 20260509083044 | 12 | 202 | 6.4 | 8.0 | 0.00 | 0.00 | 0.00 | 50 | 1003.0 |